Overview Statistics Trail Chart Weather Telemetry Raw packets
 

This is the latest recevied weather packets stored in our database for station/object W8KVG. If no packets are shown the sender has not sent any weather packets the latest 10 day(s).

<< 32 33 34 35 36 37 38 >>
Time Temp. Humidity Pressure Rain* Wind** Luminosity Snow
1777738658 4.44° C 89% 1015.2 hPa 0 mm - 58 W/m² -
1777738354 5° C 89% 1015.2 hPa 0 mm - 62 W/m² -
1777738052 5.56° C 89% 1015.1 hPa 0 mm - 70 W/m² -
1777737751 5° C 90% 1015.1 hPa 0 mm - 87 W/m² -
1777737449 5° C 90% 1014.9 hPa 0 mm - 56 W/m² -
1777737140 5.56° C 90% 1015.1 hPa 0 mm - 85 W/m² -
1777736835 5° C 90% 1015.1 hPa 0 mm - 128 W/m² -
1777736212 5° C 92% 1014.9 hPa 0 mm - 69 W/m² -
1777735908 5° C 92% 1014.7 hPa 0 mm - 64 W/m² -
1777735606 5° C 91% 1015 hPa 0 mm - 57 W/m² -
1777735303 5° C 90% 1014.9 hPa 0 mm - 45 W/m² -
1777735006 5° C 89% 1014.6 hPa 0 mm - 39 W/m² -
1777734697 6.11° C 88% 1014.6 hPa 0 mm - 24 W/m² -
1777734395 6.67° C 89% 1014.4 hPa 0 mm - 83 W/m² -
1777734091 7.22° C 90% 1014.4 hPa 0 mm - 120 W/m² -
1777733788 6.67° C 89% 1014.4 hPa 0 mm - 168 W/m² -
1777733484 6.11° C 91% 1014.5 hPa 0 mm - 122 W/m² -
1777733180 5.56° C 89% 1014.6 hPa 0 mm - 58 W/m² -
1777732877 6.67° C 91% 1014.5 hPa 0 mm - 99 W/m² -
1777732574 6.11° C 93% 1014.5 hPa 0 mm - 107 W/m² -
1777732272 6.11° C 94% 1014.6 hPa 0 mm - 155 W/m² -
1777731969 5° C 96% 1014.6 hPa 0 mm - 142 W/m² -
1777731665 4.44° C 95% 1014.5 hPa 0 mm - 96 W/m² -
1777731363 4.44° C 96% 1014.7 hPa 0 mm - 88 W/m² -
1777731060 4.44° C 96% 1014.3 hPa 0 mm - 86 W/m² -

* Rain latest hour (hover to see other rain measurements)
** Current wind speed in m/s (hover to see current wind gust speed)